• In Belarus
  • List of Countries
  • For 7 days
  • Water Temperature
  • Satellite Maps
  • Weather Map
  • Weather Widgets
  • user-avatar
    Login

    Hourly Weather Korçe

    Today, 22 January, Monday

    Time Temperature Precipitation Wind Pressure Humidity
    00:00 +2°C° 0.2 mm 2 mps 655 mmHg 95%
    01:00 +1°C° 0.2 mm 3 mps 655 mmHg 95%
    02:00 0°C° 0.3 mm 3 mps 656 mmHg 94%
    03:00 0°C° 0.3 mm 3 mps 656 mmHg 92%
    04:00 -1°C° 0.3 mm 3 mps 656 mmHg 91%
    05:00 -1°C° 0.1 mm 3 mps 657 mmHg 90%
    06:00 -2°C° 0.1 mm 3 mps 657 mmHg 90%
    07:00 -2°C° 0.1 mm 3 mps 657 mmHg 89%
    08:00 -2°C° 0 mm 3 mps 658 mmHg 82%
    09:00 -1°C° 0 mm 3 mps 659 mmHg 76%
    10:00 0°C° 0 mm 3 mps 660 mmHg 70%
    11:00 0°C° 0 mm 3 mps 660 mmHg 67%
    12:00 +1°C° 0 mm 3 mps 660 mmHg 64%
    13:00 0°C° 0 mm 4 mps 660 mmHg 61%
    14:00 +1°C° 0 mm 3 mps 661 mmHg 64%
    15:00 0°C° 0 mm 3 mps 661 mmHg 66%
    16:00 +1°C° 0 mm 2 mps 661 mmHg 69%
    17:00 -1°C° 0 mm 2 mps 661 mmHg 72%
    18:00 -2°C° 0 mm 2 mps 661 mmHg 75%
    19:00 -3°C° 0 mm 2 mps 662 mmHg 78%
    20:00 -3°C° 0 mm 2 mps 662 mmHg 77%
    21:00 -3°C° 0 mm 2 mps 662 mmHg 77%
    22:00 -1°C° 0 mm 1 mps 663 mmHg 76%
    23:00 -1°C° 0 mm 1 mps 663 mmHg 75%

    Tomorrow, 23 January, Tuesday

    Time Temperature Precipitation Wind Pressure Humidity
    00:00 -1°C° 0 mm 1 mps 663 mmHg 74%
    01:00 -1°C° 0 mm 1 mps 663 mmHg 73%
    02:00 -1°C° 0 mm 1 mps 663 mmHg 71%
    03:00 -1°C° 0 mm 1 mps 663 mmHg 70%
    04:00 0°C° 0 mm 1 mps 663 mmHg 68%
    05:00 0°C° 0 mm 1 mps 664 mmHg 67%
    06:00 0°C° 0 mm 1 mps 664 mmHg 67%
    07:00 0°C° 0 mm 1 mps 664 mmHg 66%
    08:00 +1°C° 0 mm 1 mps 665 mmHg 61%
    09:00 +2°C° 0 mm 1 mps 666 mmHg 56%
    10:00 +3°C° 0 mm 1 mps 667 mmHg 51%
    11:00 +4°C° 0 mm 1 mps 667 mmHg 50%
    12:00 +5°C° 0 mm 1 mps 667 mmHg 48%
    13:00 +5°C° 0 mm 1 mps 667 mmHg 46%
    14:00 +5°C° 0 mm 1 mps 667 mmHg 51%
    15:00 +4°C° 0 mm 1 mps 667 mmHg 56%
    16:00 +4°C° 0 mm 1 mps 667 mmHg 60%
    17:00 +2°C° 0 mm 1 mps 667 mmHg 63%
    18:00 +1°C° 0 mm 1 mps 667 mmHg 66%
    19:00 -2°C° 0 mm 2 mps 667 mmHg 68%
    20:00 -2°C° 0 mm 2 mps 668 mmHg 69%
    21:00 -2°C° 0 mm 2 mps 668 mmHg 69%
    22:00 -2°C° 0 mm 2 mps 669 mmHg 70%
    23:00 -3°C° 0 mm 2 mps 669 mmHg 71%

    Day after tomorrow, 24 January, Wednesday

    Time Temperature Precipitation Wind Pressure Humidity
    00:00 -3°C° 0 mm 2 mps 669 mmHg 73%
    01:00 -4°C° 0 mm 2 mps 669 mmHg 75%
    02:00 -4°C° 0 mm 2 mps 670 mmHg 76%
    03:00 -4°C° 0 mm 2 mps 670 mmHg 77%
    04:00 -4°C° 0 mm 2 mps 670 mmHg 77%
    05:00 -4°C° 0 mm 2 mps 670 mmHg 77%
    06:00 -4°C° 0 mm 2 mps 671 mmHg 77%
    07:00 -4°C° 0 mm 2 mps 671 mmHg 77%
    08:00 -3°C° 0 mm 2 mps 672 mmHg 70%
    09:00 -1°C° 0 mm 2 mps 673 mmHg 63%
    10:00 +1°C° 0 mm 2 mps 673 mmHg 56%
    11:00 +2°C° 0 mm 2 mps 673 mmHg 53%
    12:00 +3°C° 0 mm 2 mps 673 mmHg 50%
    13:00 +3°C° 0 mm 2 mps 674 mmHg 46%
    14:00 +3°C° 0 mm 2 mps 673 mmHg 50%
    15:00 +3°C° 0 mm 1 mps 673 mmHg 54%
    16:00 +3°C° 0 mm 1 mps 673 mmHg 57%
    17:00 +2°C° 0 mm 1 mps 673 mmHg 60%
    18:00 +1°C° 0 mm 1 mps 673 mmHg 63%
    19:00 -3°C° 0 mm 2 mps 673 mmHg 66%
    20:00 -3°C° 0 mm 2 mps 673 mmHg 66%
    21:00 -3°C° 0 mm 2 mps 673 mmHg 67%
    22:00 -3°C° 0 mm 2 mps 673 mmHg 67%
    23:00 -4°C° 0 mm 2 mps 673 mmHg 67%

    25 January, Thursday

    Time Temperature Precipitation Wind Pressure Humidity
    00:00 -4°C° 0 mm 2 mps 673 mmHg 67%
    01:00 -4°C° 0 mm 2 mps 673 mmHg 66%
    02:00 -4°C° 0 mm 2 mps 673 mmHg 65%
    03:00 -2°C° 0 mm 1 mps 673 mmHg 63%
    04:00 -2°C° 0 mm 1 mps 672 mmHg 62%
    05:00 -2°C° 0 mm 1 mps 672 mmHg 60%
    06:00 -2°C° 0 mm 1 mps 672 mmHg 59%
    07:00 -2°C° 0 mm 1 mps 672 mmHg 57%
    08:00 0°C° 0 mm 1 mps 673 mmHg 51%
    09:00 +2°C° 0 mm 1 mps 673 mmHg 46%
    10:00 +4°C° 0 mm 1 mps 674 mmHg 40%
    11:00 +5°C° 0 mm 1 mps 674 mmHg 40%
    12:00 +5°C° 0 mm 1 mps 673 mmHg 39%
    13:00 +6°C° 0 mm 1 mps 673 mmHg 38%
    14:00 +6°C° 0 mm 1 mps 673 mmHg 44%
    15:00 +5°C° 0 mm 1 mps 672 mmHg 50%
    16:00 +4°C° 0 mm 1 mps 672 mmHg 56%
    17:00 +3°C° 0 mm 1 mps 672 mmHg 58%
    18:00 +2°C° 0 mm 1 mps 671 mmHg 61%
    19:00 0°C° 0 mm 0 mps 671 mmHg 64%
    20:00 0°C° 0 mm 1 mps 671 mmHg 64%
    21:00 0°C° 0 mm 1 mps 671 mmHg 63%
    22:00 0°C° 0 mm 1 mps 671 mmHg 63%
    23:00 0°C° 0 mm 1 mps 670 mmHg 62%

    26 January, Friday

    Time Temperature Precipitation Wind Pressure Humidity
    00:00 0°C° 0 mm 1 mps 670 mmHg 62%
    01:00 0°C° 0 mm 1 mps 670 mmHg 61%
    02:00 0°C° 0 mm 1 mps 670 mmHg 61%
    03:00 0°C° 0 mm 1 mps 669 mmHg 60%
    04:00 0°C° 0 mm 1 mps 669 mmHg 60%
    05:00 0°C° 0 mm 1 mps 669 mmHg 60%
    06:00 0°C° 0 mm 1 mps 669 mmHg 59%
    07:00 0°C° 0 mm 1 mps 669 mmHg 59%
    08:00 +2°C° 0 mm 1 mps 670 mmHg 55%
    09:00 +4°C° 0 mm 1 mps 670 mmHg 51%
    10:00 +6°C° 0 mm 1 mps 671 mmHg 48%
    11:00 +6°C° 0 mm 1 mps 671 mmHg 48%
    12:00 +7°C° 0 mm 1 mps 670 mmHg 48%
    13:00 +7°C° 0 mm 2 mps 670 mmHg 48%
    14:00 +7°C° 0 mm 1 mps 670 mmHg 53%
    15:00 +6°C° 0 mm 1 mps 670 mmHg 59%
    16:00 +6°C° 0 mm 1 mps 670 mmHg 65%
    17:00 +4°C° 0 mm 1 mps 670 mmHg 69%
    18:00 +3°C° 0 mm 1 mps 669 mmHg 73%
    19:00 +2°C° 0 mm 1 mps 669 mmHg 77%
    20:00 +2°C° 0 mm 1 mps 670 mmHg 77%
    21:00 +2°C° 0 mm 1 mps 670 mmHg 78%
    22:00 +1°C° 0 mm 1 mps 670 mmHg 78%
    23:00 +1°C° 0 mm 1 mps 670 mmHg 78%

    27 January, Saturday

    Time Temperature Precipitation Wind Pressure Humidity
    00:00 +1°C° 0 mm 1 mps 670 mmHg 78%
    01:00 +1°C° 0 mm 1 mps 670 mmHg 78%
    02:00 +1°C° 0 mm 1 mps 670 mmHg 78%
    03:00 +1°C° 0 mm 1 mps 670 mmHg 78%
    04:00 +1°C° 0 mm 1 mps 669 mmHg 78%
    05:00 +1°C° 0 mm 1 mps 670 mmHg 78%
    06:00 0°C° 0 mm 1 mps 670 mmHg 78%
    07:00 -2°C° 0 mm 2 mps 670 mmHg 78%
    08:00 +2°C° 0 mm 1 mps 671 mmHg 73%
    09:00 +4°C° 0 mm 1 mps 671 mmHg 67%
    10:00 +6°C° 0 mm 1 mps 672 mmHg 62%
    11:00 +6°C° 0 mm 1 mps 672 mmHg 60%
    12:00 +7°C° 0 mm 1 mps 672 mmHg 59%
    13:00 +8°C° 0 mm 1 mps 672 mmHg 57%
    14:00 +7°C° 0 mm 1 mps 672 mmHg 62%
    15:00 +7°C° 0 mm 1 mps 672 mmHg 66%
    16:00 +6°C° 0 mm 1 mps 672 mmHg 71%
    17:00 +5°C° 0 mm 1 mps 672 mmHg 75%
    18:00 +3°C° 0 mm 0 mps 672 mmHg 79%
    19:00 +2°C° 0 mm 0 mps 672 mmHg 83%
    20:00 +1°C° 0 mm 0 mps 672 mmHg 83%
    21:00 +1°C° 0 mm 0 mps 672 mmHg 84%
    22:00 +2°C° 0 mm 1 mps 672 mmHg 84%
    23:00 +2°C° 0 mm 1 mps 672 mmHg 84%
    Show more